Regional Weather Roundup
Issued by NWS Sterling, VA

Home | Current Version | Previous Version | Text Only | Print | Product List | Glossary On
Versions: 1 2 3 4 5 6 7 8 9 10 11 12 13 14 15 16 17 18 19 20 21 22 23 24 25 26 27 28 29 30 31 32 33 34 35 36 37 38 39 40 41 42 43 44 45 46 47 48 49 50
000
ASUS41 KLWX 311210
RWRLWX

REGIONAL WEATHER ROUNDUP
NATIONAL WEATHER SERVICE BALTIMORE MD/WASHINGTON DC
800 AM EDT TUE MAY 31 2016

Note: "FAIR" indicates few or no clouds below 12,000 feet
with no significant weather and/or obstructions to visibility.
 TC=TEMPERATURE CELSIUS

 * =Non NWS site. Station does not report precipitation (e.g. rain,
    snow, etc.), thunder, or fog.

DCZ001-MDZ009-015-VAZ040>042-051-053>054-311300-
WASHINGTON METRO

CITY           SKY/WX    TMP DP  RH WIND       PRES   REMARKS
WASHINGTON NAT PTSUNNY   74  67  78 N8        29.98R
DULLES         FAIR      71  68  90 NW6       29.98S FOG
ANDREWS AFB    CLOUDY    69  67  95 VRB1      29.97R
FT BELVOIR     FAIR      72  68  87 CALM      29.98R
QUANTICO       PTSUNNY   71  68  90 S3        29.99R
LEESBURG*      FAIR      73  70  88 NW8       29.99S
MANASSAS*      SUNNY     73  72  94 CALM      29.97S FOG

$$

MDZ006>007-011-014-311300-
BALTIMORE METRO

CITY           SKY/WX    TMP DP  RH WIND       PRES   REMARKS
BWI AIRPORT    PTSUNNY   71  67  87 CALM      29.97R
MD SCIENCE CTR   N/A     73  68  84 MISG      29.98R
MARTIN STATE   CLOUDY    72  72 100 CALM      29.99R
ANNAPOLIS      CLOUDY    71  68  90 CALM      29.97R
FORT MEADE*    MOSUNNY   70  68  94 CALM      30.00R

$$

MDZ012-015-019>023-311300-
MARYLAND EASTERN SHORE

CITY           SKY/WX    TMP DP  RH WIND       PRES   REMARKS
OCEAN CITY     PTSUNNY   69  68  96 NE3       29.96S
SALISBURY      CLOUDY    69  68  96 N5        29.97R
BAY BRIDGE AP* CLOUDY    72  68  88 CALM      29.97S
EASTON*        PTSUNNY   72  72 100 CALM      30.01R

$$

MDZ017>025-311300-
SOUTHERN MARYLAND

CITY           SKY/WX    TMP DP  RH WIND       PRES   REMARKS
PATUXENT RIVER CLOUDY    70  67  90 CALM      29.98R
ST INIGOES     CLOUDY    69  67  93 NE3       29.97R
LEONARDTOWN*   CLOUDY    68  66  94 CALM      29.99R

$$

MDZ003>005-311300-
NORTH CENTRAL MARYLAND

CITY           SKY/WX    TMP DP  RH WIND       PRES   REMARKS
FREDERICK*     MOSUNNY   72  72 100 CALM      30.01R FOG
HAGERSTOWN APT SUNNY     69  64  84 CALM      30.01R
WESTMINSTER*   FOG       70  64  83 NW3       30.00R VSB 1

$$

MDZ501>502-311300-
WESTERN MARYLAND

CITY           SKY/WX    TMP DP  RH WIND       PRES   REMARKS
OAKLAND*       NOT AVBL
CUMBERLAND*    MOSUNNY   63  63 100 CALM      30.08R

$$

VAZ025>031-311300-
SHENANDOAH VALLEY

CITY           SKY/WX    TMP DP  RH WIND       PRES   REMARKS
WINCHESTER*    FAIR      68  64  88 CALM      30.01R
FRONT ROYAL*   CLOUDY    64  64 100 CALM      30.00S
LURAY*         FOG       63  63 100 CALM      30.02R VSB 1/4
NEW MARKET*    CLOUDY   N/A N/A N/A CALM      30.01S VSB 1/4
STAUNTON*      FOG       62  62 100 CALM      30.05R VSB<1/4
WAYNESBORO*    FAIR      65  62  92 CALM      30.04R

$$

WVZ021-048>050-054>055-311300-
EASTERN WEST VIRGINIA PANHANDLE

CITY           SKY/WX    TMP DP  RH WIND       PRES   REMARKS
MARTINSBURG    FOG       64  64 100 CALM      30.00R VSB<1/4
PETERSBURG*    FOG       62  62 100 CALM      30.05S VSB<1/4

$$

VAZ036>039-050-311300-
CENTRAL FOOTHILLS

CITY           SKY/WX    TMP DP  RH WIND       PRES   REMARKS
CHARLOTTESVILL FAIR      68  65  90 CALM      29.99R FOG
CULPEPER*      PTSUNNY   72  70  93 CALM      29.99R
ORANGE*        FAIR      70  70 100 CALM      30.00R
GORDONSVILLE*  FAIR      70  68  92 CALM      29.98R
WARRENTON*     FAIR      73  66  79 CALM      29.98R

$$

VAZ055>057-311300-
NORTH AND CENTRAL PIEDMONT

CITY           SKY/WX    TMP DP  RH WIND       PRES   REMARKS
FREDERICKSBRG* FOG       67  67 100 CALM      29.98R VSB 1/2
STAFFORD*      CLOUDY    67  66  96 CALM      30.02R

$$

NCZ024-NYZ072-PAZ021-071-VAZ022-071-311300-
OTHER REGIONAL OBSERVATIONS

CITY           SKY/WX    TMP DP  RH WIND       PRES   REMARKS
NEW YORK CITY  MOSUNNY   73  66  78 VRB7      29.98R
PHILADELPHIA   PTSUNNY   71  67  87 S6        29.97R
PITTSBURGH     MOSUNNY   66  57  72 CALM      30.02R
ROANOKE        FAIR      68  64  87 N6        30.04R
RICHMOND       CLOUDY    67  66  97 CALM      29.98R
RALEIGH        PTSUNNY   71  69  93 NE5       29.97R

$$

ANZ530>537-311300-
MARINE OBSERVATIONS

STATION/POSITION TIME  TEMP    WIND        PRES
                       AIR SEA DIR/SP/G
                 (UTC) (F)     (DEG/KT/KT) (MB)
THOMAS PT LIGHT  1200   69 69  150/  3/  3 1016.3R
BALT KEY BRIDGE  1100   70      CALM  /  2 1014.3R
COVE POINT       1100   67      CALM  /  2 1015.0R
LEWISETTA        1100   69 71  330/  3/  3 1014.0R
SOLOMONS ISLAND  1100   68 67  350/  3/  4   N/A
PINEY POINT      1100           70/  3/  3   N/A

$$




USA.gov is the U.S. government's official web portal to all federal, state and local government web resources and services.